COSMOS 252 DEB, 3555

Orbit data source: Space-Track

COSMOS 252 DEB, 3555 is space debris in LEO originally from a launch on Fri, 01 Nov 1968 UTC launched from the Tyuratam Missile And Space Complex (TTMTR). Debris objects in space refer to the collection of defunct objects orbiting the Earth. Examples of debris include non-operational satellites, rocket bodies, and fragments generated from explosions, collisions, or faulty payload assembly.

Loading next visibility...
Identifier
3555, 1968-097H
Orbit
LEO
Country
Flag of CISCIS
Related business
Manufacturer
Unknown
Mission
Spacecraft
Bus & Motor
Unknown
Mass
Unknown
Launch date (UTC)
Icon of a cake. It is the launch day of the satellite!1968-11-01 (57 years ago)
Launch vehicle
Unknown
Launch site
Tyuratam Missile And Space Complex (TTMTR)
Object type
Payload
Rocket body
Debris
Shape & HBR
Unknown shape, 0.6 m
Radar Cross Section
Medium (>0.1 m² and <1 m²)

Expand to show TLE details & history
Last TLE update: 16 hours ago

TLE from 16 hours ago
0 COSMOS 252 DEB
1  3555U 68097H   25304.80548072  .00000852  00000-0  32244-3 0  9999
2  3555  62.3109 132.2092 0917884 125.9212 243.0547 13.08258098706922
Epoch: 2025-10-31T19:19Z
TLE epoch observation values (Epoch: 2025-10-31T19:19:53.534Z)
Latitude
-0.00003°
Longitude
161.89148°
Altitude
1,595.799 km
Speed
6.901 km/s
True Right ascension
08h 48m 50s
True Declination
0° 00' 00"
Sunlit
Object was in daylight at epoch
Visualization orbit readout
Latitude
Unknown
Longitude
Unknown
Altitude
Unknown
Speed
Unknown
Apparent Right ascension
Unknown
Apparent Declination
Unknown
Sunlit
N/A
Visualization observer readout
Local Sidereal Time
07:19:47
Azimuth
Unknown
Elevation
Unknown
Doppler factor
Unknown
Orbital elements
Apogee altitude
1,927.113 km
Perigee altitude
530.641 km
Semi-major axis
7,607.014 km
Eccentricity
0.09179
Inclination
62.3109°
RAAN
132.2092°
Arg. of periapsis
125.9212°
True anomaly
234.17801°
Mean anomaly
243.0547°
Eccentric anomaly
238.56736°
Mean motion
3.27131 °/min
Orbital period
110.05 mins
BSTAR
0.00032244
Loading maneuver chart data...
Computing Atmospheric mass density...

Documentation

Showing up to 5 results
|